DAL042 KSAN-KLAX

Flight info

Callsign DAL042
Flight time 0h 24m
Altitude 10000
Route CWARD2 SLI
Aircraft B738/M-SDE2E3FGHIRWXY/LB1

Departure

Time 2026-04-23 17:23
Airport San Diego International Airport (KSAN)

Arrival

Time 2026-04-23 17:47
Airport Los Angeles International Airport (KLAX)
Time Latitude Longitude Altitude Speed Heading
2026-04-23 16:58 32.73314 -117.19676 23 ft 0 kts 107°
2026-04-23 17:11 32.73316 -117.19686 23 ft 2 kts 107°
2026-04-23 17:12 32.73321 -117.19704 28 ft 2 kts 107°
2026-04-23 17:12 32.73326 -117.19723 28 ft 2 kts 103°
2026-04-23 17:12 32.73327 -117.19742 27 ft 2 kts 58°
2026-04-23 17:12 32.73320 -117.19751 24 ft 1 kts 15°
2026-04-23 17:13 32.73317 -117.19752 28 ft 0 kts 14°
2026-04-23 17:16 32.73320 -117.19751 24 ft 2 kts 14°
2026-04-23 17:16 32.73362 -117.19730 23 ft 10 kts 36°
2026-04-23 17:17 32.73413 -117.19652 25 ft 8 kts 87°
2026-04-23 17:17 32.73398 -117.19559 29 ft 15 kts 104°
2026-04-23 17:17 32.73376 -117.19471 27 ft 19 kts 109°
2026-04-23 17:17 32.73314 -117.19222 24 ft 27 kts 106°
2026-04-23 17:18 32.73218 -117.18824 27 ft 23 kts 106°
2026-04-23 17:18 32.73174 -117.18643 31 ft 23 kts 106°
2026-04-23 17:18 32.73131 -117.18466 23 ft 22 kts 106°
2026-04-23 17:19 32.73090 -117.18295 23 ft 21 kts 106°
2026-04-23 17:19 32.73049 -117.18129 20 ft 21 kts 106°
2026-04-23 17:19 32.73010 -117.17968 21 ft 20 kts 105°
2026-04-23 17:19 32.72972 -117.17811 18 ft 19 kts 107°
2026-04-23 17:20 32.72955 -117.17678 19 ft 0 kts 83°
2026-04-23 17:21 32.72983 -117.17598 21 ft 12 kts 42°
2026-04-23 17:21 32.73025 -117.17611 22 ft 6 kts 299°
2026-04-23 17:21 32.73061 -117.17753 22 ft 34 kts 285°
2026-04-23 17:22 32.73211 -117.18374 25 ft 119 kts 286°
2026-04-23 17:22 32.73881 -117.21169 588 ft 214 kts 286°
2026-04-23 17:23 32.74868 -117.24951 1662 ft 253 kts 290°
2026-04-23 17:23 32.75821 -117.26722 2040 ft 264 kts 320°
2026-04-23 17:23 32.78643 -117.29631 3437 ft 278 kts 310°
2026-04-23 17:24 32.79800 -117.31474 4370 ft 277 kts 304°
2026-04-23 17:24 32.80937 -117.33401 5231 ft 282 kts 306°
2026-04-23 17:24 32.83369 -117.36969 7013 ft 287 kts 308°
2026-04-23 17:25 32.85811 -117.40772 8744 ft 291 kts 305°
2026-04-23 17:25 32.87027 -117.42704 9521 ft 294 kts 305°
2026-04-23 17:26 32.89463 -117.46545 9961 ft 283 kts 305°
2026-04-23 17:26 32.91789 -117.50182 9981 ft 272 kts 305°
2026-04-23 17:27 32.94091 -117.53777 9995 ft 274 kts 305°
2026-04-23 17:27 32.94856 -117.54970 9999 ft 275 kts 305°
2026-04-23 17:27 32.96017 -117.56782 9997 ft 275 kts 305°
2026-04-23 17:27 32.97179 -117.58594 9993 ft 275 kts 305°
2026-04-23 17:28 32.98343 -117.60411 9982 ft 275 kts 305°
2026-04-23 17:28 32.99501 -117.62220 9982 ft 275 kts 305°
2026-04-23 17:28 33.00659 -117.64027 9984 ft 274 kts 305°
2026-04-23 17:28 33.02187 -117.66414 9993 ft 273 kts 305°
2026-04-23 17:29 33.02963 -117.67628 9982 ft 272 kts 305°
2026-04-23 17:29 33.04112 -117.69423 9979 ft 272 kts 305°
2026-04-23 17:29 33.06414 -117.72988 9981 ft 272 kts 309°
2026-04-23 17:30 33.07764 -117.74533 9994 ft 273 kts 316°
2026-04-23 17:30 33.10695 -117.77418 9988 ft 273 kts 317°
2026-04-23 17:30 33.12161 -117.78866 9986 ft 273 kts 317°
2026-04-23 17:31 33.13624 -117.80332 9983 ft 274 kts 317°
2026-04-23 17:31 33.15078 -117.81803 9982 ft 274 kts 316°
2026-04-23 17:31 33.16529 -117.83278 9983 ft 274 kts 316°
2026-04-23 17:31 33.17988 -117.84763 9983 ft 274 kts 316°
2026-04-23 17:32 33.19551 -117.86074 9971 ft 281 kts 334°
2026-04-23 17:32 33.21486 -117.86807 9996 ft 309 kts 340°
2026-04-23 17:32 33.23644 -117.87512 10000 ft 334 kts 341°
2026-04-23 17:32 33.25929 -117.88237 9993 ft 342 kts 342°
2026-04-23 17:33 33.28296 -117.88989 10001 ft 362 kts 342°
2026-04-23 17:33 33.30779 -117.89786 9997 ft 373 kts 342°
2026-04-23 17:33 33.33295 -117.90599 9980 ft 375 kts 341°
2026-04-23 17:33 33.35804 -117.91415 9971 ft 373 kts 341°
2026-04-23 17:34 33.38305 -117.92233 9977 ft 372 kts 341°
2026-04-23 17:34 33.40804 -117.93054 9972 ft 372 kts 341°
2026-04-23 17:34 33.45798 -117.94703 9982 ft 372 kts 341°
2026-04-23 17:35 33.48293 -117.95529 9984 ft 372 kts 341°
2026-04-23 17:35 33.53288 -117.97184 9989 ft 373 kts 341°
2026-04-23 17:35 33.55757 -117.98003 9988 ft 373 kts 341°
2026-04-23 17:36 33.58289 -117.98843 9990 ft 373 kts 341°
2026-04-23 17:36 33.60792 -117.99674 9991 ft 373 kts 341°
2026-04-23 17:36 33.63265 -118.00495 9987 ft 373 kts 341°
2026-04-23 17:36 33.65816 -118.01086 9978 ft 371 kts 352°
2026-04-23 17:37 33.68349 -118.01063 9946 ft 356 kts
2026-04-23 17:37 33.70761 -118.00882 9939 ft 338 kts 360°
2026-04-23 17:37 33.75246 -118.00570 9935 ft 308 kts 359°
2026-04-23 17:38 33.77343 -118.00435 9937 ft 294 kts 359°
2026-04-23 17:38 33.79344 -118.00309 9937 ft 282 kts 359°
2026-04-23 17:38 33.81276 -118.00190 9827 ft 274 kts 358°
2026-04-23 17:38 33.83177 -118.00076 9582 ft 273 kts 359°
2026-04-23 17:39 33.85076 -117.99963 9289 ft 273 kts 359°
2026-04-23 17:39 33.86969 -117.99849 9010 ft 272 kts 359°
2026-04-23 17:39 33.88857 -117.99734 8761 ft 270 kts 360°
2026-04-23 17:39 33.90734 -117.99619 8488 ft 270 kts 360°
2026-04-23 17:40 33.92584 -117.99506 8224 ft 269 kts
2026-04-23 17:40 33.94450 -117.99391 7976 ft 268 kts
2026-04-23 17:40 33.96268 -117.99662 7670 ft 263 kts 333°
2026-04-23 17:40 33.97616 -118.01073 7361 ft 260 kts 299°
2026-04-23 17:41 33.98138 -118.03143 7055 ft 260 kts 278°
2026-04-23 17:41 33.98361 -118.07455 6700 ft 247 kts 271°
2026-04-23 17:41 33.98307 -118.09470 6589 ft 234 kts 267°
2026-04-23 17:42 33.98005 -118.13150 6402 ft 206 kts 264°
2026-04-23 17:42 33.97834 -118.14806 6298 ft 192 kts 264°
2026-04-23 17:42 33.97671 -118.16364 6006 ft 190 kts 264°
2026-04-23 17:43 33.97506 -118.17947 5637 ft 191 kts 264°
2026-04-23 17:43 33.97340 -118.19540 5273 ft 192 kts 263°
2026-04-23 17:43 33.97178 -118.21099 5117 ft 180 kts 263°
2026-04-23 17:43 33.97025 -118.22573 4874 ft 176 kts 263°
2026-04-23 17:44 33.96872 -118.24050 4540 ft 177 kts 263°
2026-04-23 17:44 33.96720 -118.25516 4219 ft 176 kts 263°
2026-04-23 17:44 33.96421 -118.28422 3540 ft 172 kts 264°
2026-04-23 17:45 33.96296 -118.29885 2977 ft 180 kts 264°
2026-04-23 17:45 33.95988 -118.32893 1976 ft 178 kts 263°
2026-04-23 17:45 33.95831 -118.34313 1616 ft 165 kts 262°
2026-04-23 17:46 33.95553 -118.37005 744 ft 157 kts 263°
2026-04-23 17:46 33.95422 -118.38286 474 ft 149 kts 261°
2026-04-23 17:46 33.95280 -118.39551 288 ft 156 kts 262°
2026-04-23 17:47 33.95153 -118.40824 126 ft 144 kts 262°
2026-04-23 17:47 33.95037 -118.41894 122 ft 104 kts 263°
2026-04-23 17:47 33.94925 -118.42979 125 ft 31 kts 264°
2026-04-23 17:48 33.94869 -118.43090 123 ft 16 kts 189°
2026-04-23 17:48 33.94763 -118.43081 123 ft 15 kts 173°
2026-04-23 17:48 33.94675 -118.43029 123 ft 14 kts 132°
2026-04-23 17:48 33.94623 -118.42933 122 ft 14 kts 105°
2026-04-23 17:49 33.94624 -118.42822 125 ft 13 kts 85°
2026-04-23 17:49 33.94635 -118.42711 125 ft 15 kts 83°
2026-04-23 17:49 33.94648 -118.42572 124 ft 17 kts 83°
2026-04-23 17:49 33.94664 -118.42433 123 ft 16 kts 84°
2026-04-23 17:50 33.94677 -118.42299 123 ft 16 kts 82°
2026-04-23 17:50 33.94702 -118.42046 123 ft 15 kts 83°
2026-04-23 17:50 33.94714 -118.41928 125 ft 14 kts 85°
2026-04-23 17:51 33.94684 -118.41830 125 ft 13 kts 156°
2026-04-23 17:51 33.94595 -118.41808 123 ft 13 kts 173°
2026-04-23 17:51 33.94518 -118.41664 124 ft 12 kts 83°
2026-04-23 17:52 33.94521 -118.41639 125 ft 0 kts 83°